Location: Nairn
(57.5833°N, 3.8667°W)
Time: 02:07:59
(UTC+00:00)

Vanguard 1 Rocket - Pass Details

Date: 03 December 2020
Orbit: 655 x 4221 km, 34.3° (Epoch: 20 January)

Event Time Altitude Azimuth Distance (km) Brightness Sun altitude
Exits shadow 05:37:07 17° 247° (WSW) 6,142 11.1 -22.3°
Maximum altitude 05:46:50 25° 215° (SW) 4,867 10.8 -21.0°
Drops below altitude 10° 05:57:42 10° 168° (SSE) 4,843 11.4 -19.6°
Sets 06:01:40 0° 155° (SSE) 5,349 11.9 -19.1°
